Weather History for Greeley, CO

Change the Weather History Date:

Monday, February 24, 2014

  Actual Average Record
Temperature  
Mean Temperature 36 °F -  
Max Temperature 55 °F 42 °F 75 °F (1986)
Min Temperature 17 °F 17 °F -4 °F (2003)
Degree Days  
Heating Degree Days 29    
Moisture  
Dew Point 16 °F    
Average Humidity 68    
Maximum Humidity 86    
Minimum Humidity 31    
Precipitation  
Precipitation 0.00 in - - ()
Sea Level Pressure  
Sea Level Pressure 30.02 in    
Wind  
Wind Speed 7 mph (ENE)    
Max Wind Speed 33 mph    
Max Gust Speed 41 mph    
Visibility 6 miles    
Events      
Averages and records for this station are not official NWS values.
T = Trace of Precipitation, MM = Missing Value Source: NWS Daily Summary

Daily Weather History Graph

Daily Weather History Graph

Search for Another Location

Airport:

Trip Planner

Search our weather history database for the weather conditions in past years. The results will help you decide how hot, cold, wet, or windy it might be!

Date:

Astronomy

Feb. 24, 2014 Rise Set
Actual Time 6:39 AM MST 5:44 PM MST
Civil Twilight 6:12 AM MST 6:11 PM MST
Nautical Twilight 5:40 AM MST 6:43 PM MST
Astronomical Twilight 5:08 AM MST 7:15 PM MST
Moon 2:41 AM MST (2/24) 12:47 PM MST (2/24)
Length of Visible Light 11h 59m
Length of Day
11h 04m
Waning Crescent, 27% of the Moon is Illuminated
Feb 24
Waning Crescent
Mar 1
New
Mar 8
First Quarter
Mar 16
Full
Mar 23
Last Quarter

Hourly Weather History & Observations

Time (MST) Temp. Windchill Dew Point Humidity Pressure Visibility Wind Dir Wind Speed Gust Speed Precip Events Conditions
12:15 AM 21.2 °F 11.7 °F 17.6 °F 86% 29.98 in 2.5 mi ENE 8.1 mph - N/A   Overcast
12:35 AM 21.2 °F 12.6 °F 15.8 °F 80% 29.99 in 3.0 mi ENE 6.9 mph - N/A   Overcast
12:55 AM 21.2 °F 11.7 °F 15.8 °F 80% 29.98 in 3.0 mi NE 8.1 mph - N/A   Overcast
1:15 AM 21.2 °F 13.6 °F 15.8 °F 80% 29.97 in 2.0 mi East 5.8 mph - N/A   Overcast
1:35 AM 21.2 °F 14.9 °F 15.8 °F 80% 29.96 in 1.5 mi East 4.6 mph - N/A   Overcast
1:55 AM 21.2 °F 16.4 °F 15.8 °F 80% 29.96 in 2.0 mi ENE 3.5 mph - N/A   Overcast
2:15 AM 21.2 °F 13.6 °F 15.8 °F 80% 29.95 in 1.0 mi East 5.8 mph - N/A   Overcast
2:35 AM 21.2 °F - 15.8 °F 80% 29.95 in 0.5 mi Calm Calm - N/A   Overcast
2:55 AM 21.2 °F 16.4 °F 15.8 °F 80% 29.95 in 0.8 mi NNE 3.5 mph - N/A   Overcast
3:15 AM 21.2 °F - 15.8 °F 80% 29.95 in 0.8 mi Calm Calm - N/A   Overcast
3:35 AM 21.2 °F - 15.8 °F 80% 29.93 in 1.2 mi Calm Calm - N/A   Overcast
3:55 AM 21.2 °F - 15.8 °F 80% 29.93 in 1.2 mi Calm Calm - N/A   Overcast
4:15 AM 21.2 °F - 17.6 °F 86% 29.93 in 1.5 mi Calm Calm - N/A   Overcast
4:35 AM 21.2 °F - 15.8 °F 80% 29.93 in 1.8 mi Calm Calm - N/A   Overcast
4:55 AM 21.2 °F - 17.6 °F 86% 29.93 in 2.5 mi Calm Calm - N/A   Overcast
5:15 AM 21.2 °F - 15.8 °F 80% 29.92 in 2.5 mi Calm Calm - N/A   Overcast
5:35 AM 21.2 °F - 15.8 °F 80% 29.92 in 2.0 mi Calm Calm - N/A   Overcast
5:55 AM 21.2 °F - 17.6 °F 86% 29.93 in 3.0 mi Calm Calm - N/A   Overcast
6:15 AM 21.2 °F - 17.6 °F 86% 29.92 in 3.0 mi Calm Calm - N/A   Overcast
6:35 AM 21.2 °F 16.4 °F 17.6 °F 86% 29.92 in 1.5 mi ENE 3.5 mph - N/A   Overcast
6:55 AM 23.0 °F - 17.6 °F 80% 29.91 in 1.0 mi Calm Calm - N/A   Overcast
7:15 AM 23.0 °F 13.9 °F 17.6 °F 80% 29.90 in 0.5 mi SSE 8.1 mph - N/A   Overcast
7:35 AM 23.0 °F 18.4 °F 17.6 °F 80% 29.92 in 0.2 mi SSW 3.5 mph - N/A   Overcast
7:55 AM 23.0 °F 18.4 °F 17.6 °F 80% 29.94 in 0.5 mi NNE 3.5 mph - N/A   Overcast
8:15 AM 23.0 °F - 17.6 °F 80% 29.92 in 0.2 mi Calm Calm - N/A   Overcast
8:35 AM 24.8 °F - 17.6 °F 74% 29.94 in 0.5 mi Calm Calm - N/A   Overcast
8:55 AM 24.8 °F 20.5 °F 19.4 °F 80% 29.92 in 0.8 mi East 3.5 mph - N/A   Overcast
9:15 AM 24.8 °F 20.5 °F 19.4 °F 80% 29.92 in 1.2 mi East 3.5 mph - N/A   Overcast
9:35 AM 24.8 °F 17.9 °F 19.4 °F 80% 29.92 in 3.0 mi East 5.8 mph - N/A   Overcast
9:55 AM 24.8 °F 16.1 °F 19.4 °F 80% 29.93 in 3.0 mi East 8.1 mph - N/A   Overcast
10:15 AM 26.6 °F - 21.2 °F 80% 29.92 in 5.0 mi Calm Calm - N/A   Overcast
10:35 AM 28.4 °F - 23.0 °F 80% 29.93 in 7.0 mi Calm Calm - N/A   Scattered Clouds
10:55 AM 30.2 °F - 24.8 °F 80% 29.92 in 9.0 mi Calm Calm - N/A   Clear
11:15 AM 33.8 °F - 26.6 °F 75% 29.91 in 10.0 mi Calm Calm - N/A   Clear
11:35 AM 37.4 °F - 26.6 °F 65% 29.91 in 10.0 mi Calm Calm - N/A   Clear
11:55 AM 39.2 °F 35.0 °F 26.6 °F 61% 29.90 in 10.0 mi ESE 5.8 mph - N/A   Clear
12:15 PM 42.8 °F 41.1 °F 28.4 °F 57% 29.90 in 10.0 mi South 3.5 mph - N/A   Clear
12:35 PM 44.6 °F 42.2 °F 28.4 °F 53% 29.89 in 10.0 mi East 4.6 mph - N/A   Clear
12:55 PM 48.2 °F - 30.2 °F 50% 29.88 in 10.0 mi SE 4.6 mph - N/A   Clear
1:15 PM 51.8 °F - 30.2 °F 44% 29.87 in 10.0 mi ESE 5.8 mph - N/A   Clear
1:35 PM 53.6 °F - 28.4 °F 38% 29.87 in 10.0 mi East 8.1 mph - N/A   Clear
1:55 PM 55.4 °F - 28.4 °F 36% 29.88 in 10.0 mi East 8.1 mph - N/A   Clear
2:15 PM 55.4 °F - 24.8 °F 31% 29.88 in 10.0 mi ESE 11.5 mph - N/A   Clear
2:35 PM 39.2 °F 27.4 °F 23.0 °F 52% 29.92 in 10.0 mi NE 29.9 mph 35.7 mph N/A   Clear
2:55 PM 33.8 °F 21.0 °F 21.2 °F 60% 29.92 in 10.0 mi NE 25.3 mph 38.0 mph N/A   Clear
3:15 PM 32.0 °F 17.6 °F 19.4 °F 60% 29.95 in 10.0 mi NNE 29.9 mph 40.3 mph N/A   Clear
3:35 PM 30.2 °F 15.9 °F 17.6 °F 60% 29.97 in 10.0 mi NNE 26.5 mph 36.8 mph N/A   Clear
3:55 PM 28.4 °F 13.0 °F 17.6 °F 64% 29.99 in 10.0 mi NE 28.8 mph 38.0 mph N/A   Clear
4:15 PM 26.6 °F 9.6 °F 15.8 °F 64% 30.00 in 10.0 mi NNE 33.4 mph 38.0 mph N/A   Clear
4:35 PM 26.6 °F 9.6 °F 14.0 °F 59% 30.02 in 10.0 mi NNE 33.4 mph 41.4 mph N/A   Clear
4:55 PM 24.8 °F 7.9 °F 12.2 °F 59% 30.05 in 10.0 mi NNE 29.9 mph 39.1 mph N/A   Clear
5:15 PM 23.0 °F 4.9 °F 12.2 °F 63% 30.08 in 10.0 mi NNE 32.2 mph 38.0 mph N/A   Clear
5:35 PM 23.0 °F 7.2 °F 10.4 °F 59% 30.12 in 10.0 mi NNE 23.0 mph 33.4 mph N/A   Clear
5:55 PM 21.2 °F 10.1 °F 10.4 °F 63% 30.17 in 10.0 mi NE 10.4 mph - N/A   Clear
6:15 PM 21.2 °F 7.8 °F 10.4 °F 63% 30.20 in 10.0 mi NE 15.0 mph 18.4 mph N/A   Clear
6:35 PM 21.2 °F 8.3 °F 8.6 °F 58% 30.23 in 10.0 mi NE 13.8 mph 18.4 mph N/A   Clear
6:55 PM 21.2 °F 8.3 °F 8.6 °F 58% 30.25 in 10.0 mi NE 13.8 mph - N/A   Clear
7:15 PM 21.2 °F 10.1 °F 8.6 °F 58% 30.27 in 10.0 mi ENE 10.4 mph - N/A   Mostly Cloudy
7:35 PM 19.4 °F 7.2 °F 8.6 °F 63% 30.27 in 10.0 mi East 11.5 mph - N/A   Overcast
7:55 PM 19.4 °F 7.9 °F 8.6 °F 63% 30.28 in 10.0 mi East 10.4 mph - N/A   Overcast
8:15 PM 19.4 °F 7.2 °F 8.6 °F 63% 30.28 in 10.0 mi East 11.5 mph - N/A   Overcast
8:35 PM 19.4 °F 6.6 °F 6.8 °F 58% 30.27 in 10.0 mi ENE 12.7 mph - N/A   Overcast
8:55 PM 19.4 °F 9.5 °F 8.6 °F 63% 30.28 in 10.0 mi East 8.1 mph - N/A   Overcast
9:15 PM 17.6 °F 6.4 °F 6.8 °F 63% 30.27 in 10.0 mi East 9.2 mph - N/A   Overcast
9:35 PM 17.6 °F 6.4 °F 6.8 °F 63% 30.27 in 10.0 mi East 9.2 mph - N/A   Overcast
9:55 PM 17.6 °F 7.3 °F 6.8 °F 63% 30.27 in 10.0 mi East 8.1 mph - N/A   Overcast
10:15 PM 17.6 °F 6.4 °F 5.0 °F 58% 30.26 in 10.0 mi East 9.2 mph - N/A   Overcast
10:35 PM 17.6 °F 6.4 °F 1.4 °F 49% 30.25 in 10.0 mi East 9.2 mph - N/A   Overcast
10:55 PM 17.6 °F 6.4 °F 1.4 °F 49% 30.24 in 10.0 mi East 9.2 mph - N/A   Overcast
11:15 PM 17.6 °F 7.3 °F 3.2 °F 53% 30.23 in 10.0 mi ESE 8.1 mph - N/A   Overcast
11:35 PM 17.6 °F 8.2 °F 3.2 °F 53% 30.22 in 10.0 mi SE 6.9 mph - N/A   Overcast
11:55 PM 17.6 °F 5.7 °F 3.2 °F 53% 30.21 in 10.0 mi SE 10.4 mph - N/A   Overcast